Stündliche Wetter 1-e Yuldybaevo

Heute, 18 Juni, Freitag

Zeit Temperatur Niederschläge Wind Luftdruck Luftfeuchtigkeit
00:00 +13°C° 0 mm 3 m/S 737 mmHg 89%
01:00 +13°C° 0 mm 2 m/S 737 mmHg 92%
02:00 +12°C° 0 mm 2 m/S 738 mmHg 92%
03:00 +12°C° 0 mm 2 m/S 738 mmHg 93%
04:00 +10°C° 0 mm 2 m/S 738 mmHg 93%
05:00 +11°C° 0 mm 3 m/S 739 mmHg 84%
06:00 +13°C° 0 mm 4 m/S 739 mmHg 75%
07:00 +15°C° 0 mm 5 m/S 739 mmHg 67%
08:00 +16°C° 0 mm 5 m/S 739 mmHg 59%
09:00 +17°C° 0 mm 6 m/S 739 mmHg 52%
10:00 +20°C° 0 mm 6 m/S 740 mmHg 45%
11:00 +21°C° 0 mm 6 m/S 740 mmHg 42%
12:00 +21°C° 0 mm 6 m/S 740 mmHg 40%
13:00 +22°C° 0 mm 6 m/S 740 mmHg 38%
14:00 +22°C° 0 mm 6 m/S 740 mmHg 38%
15:00 +22°C° 0 mm 7 m/S 741 mmHg 39%
16:00 +22°C° 0 mm 7 m/S 741 mmHg 40%
17:00 +20°C° 0 mm 6 m/S 741 mmHg 43%
18:00 +19°C° 0 mm 5 m/S 742 mmHg 47%
19:00 +17°C° 0 mm 5 m/S 742 mmHg 50%
20:00 +15°C° 0 mm 4 m/S 743 mmHg 56%
21:00 +13°C° 0 mm 3 m/S 743 mmHg 62%
22:00 +11°C° 0 mm 3 m/S 744 mmHg 69%
23:00 +10°C° 0 mm 2 m/S 744 mmHg 74%

Morgen, 19 Juni, Samstag

Zeit Temperatur Niederschläge Wind Luftdruck Luftfeuchtigkeit
00:00 +9°C° 0 mm 2 m/S 744 mmHg 79%
01:00 +8°C° 0 mm 2 m/S 745 mmHg 85%
02:00 +8°C° 0 mm 2 m/S 745 mmHg 84%
03:00 +8°C° 0 mm 2 m/S 745 mmHg 83%
04:00 +8°C° 0 mm 2 m/S 746 mmHg 82%
05:00 +10°C° 0 mm 2 m/S 746 mmHg 74%
06:00 +13°C° 0 mm 2 m/S 746 mmHg 65%
07:00 +15°C° 0 mm 2 m/S 746 mmHg 57%
08:00 +17°C° 0 mm 2 m/S 746 mmHg 51%
09:00 +18°C° 0 mm 3 m/S 746 mmHg 46%
10:00 +20°C° 0 mm 4 m/S 746 mmHg 41%
11:00 +21°C° 0 mm 4 m/S 746 mmHg 40%
12:00 +22°C° 0 mm 4 m/S 745 mmHg 40%
13:00 +22°C° 0 mm 5 m/S 745 mmHg 40%
14:00 +22°C° 0 mm 5 m/S 745 mmHg 42%
15:00 +22°C° 0 mm 5 m/S 744 mmHg 45%
16:00 +23°C° 0 mm 5 m/S 744 mmHg 47%
17:00 +22°C° 0 mm 5 m/S 744 mmHg 53%
18:00 +21°C° 0 mm 4 m/S 744 mmHg 58%
19:00 +21°C° 0 mm 4 m/S 743 mmHg 63%
20:00 +19°C° 0 mm 3 m/S 743 mmHg 72%
21:00 +17°C° 0 mm 2 m/S 743 mmHg 81%
22:00 +15°C° 0 mm 2 m/S 743 mmHg 89%
23:00 +15°C° 0 mm 2 m/S 743 mmHg 90%

übermorgen, 20 Juni, Sonntag

Zeit Temperatur Niederschläge Wind Luftdruck Luftfeuchtigkeit
00:00 +14°C° 0 mm 2 m/S 743 mmHg 91%
01:00 +14°C° 0 mm 2 m/S 742 mmHg 92%
02:00 +14°C° 0 mm 2 m/S 742 mmHg 93%
03:00 +14°C° 0 mm 2 m/S 742 mmHg 94%
04:00 +14°C° 0 mm 1 m/S 742 mmHg 95%
05:00 +16°C° 0 mm 2 m/S 742 mmHg 89%
06:00 +17°C° 0 mm 3 m/S 742 mmHg 84%
07:00 +19°C° 0 mm 3 m/S 742 mmHg 78%
08:00 +21°C° 0 mm 4 m/S 741 mmHg 72%
09:00 +23°C° 0 mm 5 m/S 741 mmHg 65%
10:00 +26°C° 0 mm 5 m/S 741 mmHg 59%
11:00 +27°C° 0 mm 6 m/S 741 mmHg 55%
12:00 +28°C° 0 mm 6 m/S 740 mmHg 51%
13:00 +29°C° 0 mm 7 m/S 740 mmHg 47%
14:00 +29°C° 0 mm 7 m/S 740 mmHg 51%
15:00 +28°C° 0 mm 7 m/S 740 mmHg 55%
16:00 +28°C° 0 mm 7 m/S 740 mmHg 58%
17:00 +26°C° 0.1 mm 6 m/S 740 mmHg 64%
18:00 +24°C° 0.1 mm 6 m/S 740 mmHg 71%
19:00 +23°C° 0.1 mm 5 m/S 740 mmHg 77%
20:00 +22°C° 0 mm 4 m/S 740 mmHg 76%
21:00 +20°C° 0 mm 4 m/S 741 mmHg 75%
22:00 +18°C° 0 mm 3 m/S 741 mmHg 73%
23:00 +17°C° 0 mm 3 m/S 741 mmHg 76%

21 Juni, Montag

Zeit Temperatur Niederschläge Wind Luftdruck Luftfeuchtigkeit
00:00 +15°C° 0 mm 2 m/S 741 mmHg 78%
01:00 +13°C° 0 mm 2 m/S 741 mmHg 80%
02:00 +12°C° 0 mm 2 m/S 742 mmHg 83%
03:00 +12°C° 0 mm 2 m/S 742 mmHg 86%
04:00 +10°C° 0 mm 2 m/S 742 mmHg 90%
05:00 +13°C° 0 mm 2 m/S 743 mmHg 76%
06:00 +15°C° 0 mm 2 m/S 743 mmHg 63%
07:00 +17°C° 0 mm 3 m/S 743 mmHg 50%
08:00 +19°C° 0 mm 3 m/S 743 mmHg 42%
09:00 +21°C° 0 mm 4 m/S 743 mmHg 35%
10:00 +22°C° 0 mm 4 m/S 743 mmHg 27%
11:00 +23°C° 0 mm 4 m/S 743 mmHg 28%
12:00 +25°C° 0 mm 4 m/S 743 mmHg 28%
13:00 +26°C° 0 mm 4 m/S 743 mmHg 28%
14:00 +26°C° 0 mm 4 m/S 743 mmHg 30%
15:00 +26°C° 0 mm 5 m/S 743 mmHg 33%
16:00 +26°C° 0 mm 5 m/S 742 mmHg 35%
17:00 +25°C° 0 mm 4 m/S 742 mmHg 41%
18:00 +23°C° 0 mm 4 m/S 742 mmHg 48%
19:00 +21°C° 0 mm 3 m/S 742 mmHg 55%
20:00 +19°C° 0 mm 3 m/S 742 mmHg 62%
21:00 +17°C° 0 mm 2 m/S 742 mmHg 70%
22:00 +15°C° 0 mm 1 m/S 742 mmHg 77%
23:00 +15°C° 0 mm 1 m/S 742 mmHg 78%

22 Juni, Dienstag

Zeit Temperatur Niederschläge Wind Luftdruck Luftfeuchtigkeit
00:00 +14°C° 0 mm 1 m/S 742 mmHg 79%
01:00 +13°C° 0 mm 0 m/S 742 mmHg 80%
02:00 +13°C° 0 mm 0 m/S 742 mmHg 79%
03:00 +14°C° 0 mm 1 m/S 741 mmHg 78%
04:00 +14°C° 0 mm 1 m/S 741 mmHg 77%
05:00 +16°C° 0 mm 1 m/S 741 mmHg 73%
06:00 +18°C° 0 mm 2 m/S 741 mmHg 68%
07:00 +20°C° 0 mm 2 m/S 741 mmHg 64%
08:00 +22°C° 0 mm 3 m/S 741 mmHg 62%
09:00 +25°C° 0 mm 4 m/S 741 mmHg 59%
10:00 +27°C° 0 mm 5 m/S 740 mmHg 57%
11:00 +28°C° 0.1 mm 5 m/S 740 mmHg 53%
12:00 +29°C° 0.1 mm 6 m/S 740 mmHg 50%
13:00 +30°C° 0.1 mm 6 m/S 740 mmHg 46%
14:00 +30°C° 0 mm 6 m/S 739 mmHg 46%
15:00 +29°C° 0 mm 6 m/S 739 mmHg 47%
16:00 +29°C° 0 mm 6 m/S 739 mmHg 47%
17:00 +27°C° 0.4 mm 5 m/S 739 mmHg 60%
18:00 +25°C° 0.4 mm 4 m/S 739 mmHg 74%
19:00 +22°C° 0.4 mm 3 m/S 739 mmHg 87%
20:00 +21°C° 0.3 mm 2 m/S 739 mmHg 89%
21:00 +20°C° 0.3 mm 2 m/S 739 mmHg 92%
22:00 +19°C° 0.3 mm 2 m/S 739 mmHg 95%
23:00 +18°C° 0 mm 2 m/S 740 mmHg 94%

23 Juni, Mittwoch

Zeit Temperatur Niederschläge Wind Luftdruck Luftfeuchtigkeit
00:00 +17°C° 0 mm 2 m/S 740 mmHg 94%
01:00 +16°C° 0 mm 2 m/S 740 mmHg 94%
02:00 +15°C° 0 mm 2 m/S 741 mmHg 93%
03:00 +14°C° 0 mm 2 m/S 741 mmHg 93%
04:00 +14°C° 0 mm 1 m/S 742 mmHg 92%
05:00 +15°C° 0 mm 1 m/S 742 mmHg 86%
06:00 +16°C° 0 mm 1 m/S 743 mmHg 80%
07:00 +18°C° 0 mm 1 m/S 743 mmHg 73%
08:00 +19°C° 0 mm 2 m/S 743 mmHg 61%
09:00 +21°C° 0 mm 2 m/S 743 mmHg 49%
10:00 +24°C° 0 mm 3 m/S 743 mmHg 37%
11:00 +25°C° 0 mm 3 m/S 743 mmHg 35%
12:00 +26°C° 0 mm 3 m/S 743 mmHg 33%
13:00 +27°C° 0 mm 3 m/S 743 mmHg 31%
14:00 +27°C° 0 mm 3 m/S 743 mmHg 30%
15:00 +28°C° 0 mm 3 m/S 743 mmHg 29%
16:00 +28°C° 0 mm 3 m/S 743 mmHg 28%
17:00 +27°C° 0 mm 3 m/S 743 mmHg 35%
18:00 +25°C° 0 mm 3 m/S 743 mmHg 42%
19:00 +24°C° 0 mm 3 m/S 743 mmHg 50%
20:00 +20°C° 0 mm 3 m/S 744 mmHg 56%
21:00 +18°C° 0 mm 2 m/S 744 mmHg 63%
22:00 +15°C° 0 mm 2 m/S 744 mmHg 69%
23:00 +15°C° 0 mm 1 m/S 744 mmHg 71%
Mehr zeigen

Wir brauchen deine Erlaubnis

Meteoprog und unser Service Anbieter werden persönliche Daten aufbewahren, so wie Cookies, Geräte Bezeichnung oder ähnliche Technologien von deinem Gerät und Prozess, so wie Persönliche Daten Inhalte und Werbungen, genauso wie social Media und den Verkehr zu analysieren.

  • Aufbewahrung und/oder Zugang zu deiner Geräte Informationen.

    Cookies, Geräte Bezeichnung oder andere Informationen, können aufbewahrt oder Zugang zu deinem Gerät erhalten, für den Grund, der oben angegeben wird.

  • Personalisierte Werbung und Inhalte, Messungen, Einblick in das Publikum und Produkt Entwicklung.

    Werbungen und Inhalte können personalisiert werden, basierend auf ein Profil. Mehr Daten können besser personalisierte Werbungen und Inhalte hinzufügen. Werbung und Inhalte können gezeigt und gemessen werden. Einblicke über das Publikum, welche die Werbung gesehen haben und den Inhalt, können abgeleitet werden. So wie Daten können genutzt werden, um es zu verbessern oder die Benutzer Erfahrung zu verbessern das System und die Software.

Wenn du “Ich stimme zu” klickst, erlaubst du uns, die Cookies zu benutzen die Geräte Bezeichnung, den Web oder ähnliche Technologien zu benutzen. Deine Settings, können in deinem Gerät bei deinem Browser geändert werden.

Für den bestimmten Zweck, berechtigten Interessen beruhen darauf, mehr als auf den Inhalt. Du kannst mehr darüber in unseren Privaten und Cookie Politik lesen.